Orbital Elements at Epoch 2459200.5 (2020-Dec-17.0) TDB
Reference: JPL 16 (heliocentric ecliptic J2000)
Element | Value | Uncertainty (1-sigma) | Units |
e | .27548942430254 | 4.4834e-08 | |
a | 2.622489054966217 | 1.1722e-08 | au |
q | 1.900021054973862 | 1.2049e-07 | au |
i | 4.549325368210948 | 5.6501e-06 | deg |
node | 27.83095014079074 | 4.8917e-05 | deg |
peri | 15.43338580554149 | 5.019e-05 | deg |
M | 71.03500695634482 | 9.1296e-06 | deg |
tp | 2458894.417232166280 (2020-Feb-14.91723217) | 3.8441e-05 | TDB |
period | 1551.204133588069 4.25 | 1.04e-05 2.847e-08 | d yr |
n | .2320777724897425 | 1.556e-09 | deg/d |
Q | 3.344957054958572 | 1.4951e-08 | au |
|
| | Orbit Determination Parameters
Additional Information
|